Terug naar catalogus

CZ-6A DEB

ActiefPO
NORAD 61833·DEBRIS·🇨🇳 China

Gelanceerd Aug 6, 2024 vanaf Taiyuan Satellite Launch Center

Loading…

Volgende Passages (komende 24 uur)

TLE

VersSource: Space-Track

Epoch: Sep 14, 2026, 10:15 UTC

1 61833U 24140ACZ 26257.42738704  .00009742  00000-0  17687-2 0  9992
2 61833  88.8545 245.9716 0053167 349.9741  10.0408 14.65214915105719

Volg CZ-6A DEB in realtime met AllMySat

Download on the App Store